DW0108 Weather Reports


Display with metric or nautical units.
time (UTC)temp
F
wind
direction
speed
MPH
gust
MPH
rain 1hr
in
rain 24hr
in
rain mn
in
humidity
%
barometer
mb
20200121215816 56 192 8.0 16.0 0.00 0.00 0.00 36 861.1
20200121214812 56 170 10.0 17.0 0.00 0.00 0.00 36 861.1
20200121212826 56 173 9.0 13.0 0.00 0.00 0.00 36 861.1
20200121211805 56 177 9.0 11.0 0.00 0.00 0.00 36 861.1
20200121205816 56 183 8.0 15.0 0.00 0.00 0.00 36 861.1
20200121204831 57 182 9.0 17.0 0.00 0.00 0.00 34 861.1
20200121203814 56 168 10.0 14.0 0.00 0.00 0.00 34 861.1
20200121195834 56 169 7.0 12.0 0.00 0.00 0.00 36 861.1
20200121194843 56 169 7.0 14.0 0.00 0.00 0.00 37 861.1
20200121190819 55 171 5.0 11.0 0.00 0.00 0.00 38 861.1
20200121185827 55 193 4.0 7.0 0.00 0.00 0.00 42 861.1
20200121184818 55 198 5.0 7.0 0.00 0.00 0.00 42 861.1
20200121183827 54 209 5.0 9.0 0.00 0.00 0.00 42 861.1
20200121182832 54 220 5.0 9.0 0.00 0.00 0.00 41 861.1
20200121181829 54 210 4.0 10.0 0.00 0.00 0.00 43 861.1
20200121173845 52 158 0.0 1.0 0.00 0.00 0.00 50 861.1
20200121172840 51 157 1.0 5.0 0.00 0.00 0.00 50 861.1
20200121171844 51 176 1.0 4.0 0.00 0.00 0.00 51 861.1
20200121165848 49 148 1.0 5.0 0.00 0.00 0.00 55 861.1
20200121164835 48 151 0.0 4.0 0.00 0.00 0.00 59 861.1
20200121163827 47 140 0.0 3.0 0.00 0.00 0.00 62 861.1
20200121162805 46 166 0.0 0.0 0.00 0.00 0.00 62 861.1
20200121160843 44 141 0.0 0.0 0.00 0.00 0.00 66 861.1
20200121155814 44 157 1.0 3.0 0.00 0.00 0.00 66 861.1
20200121153822 42 185 0.0 2.0 0.00 0.00 0.00 72 861.1
20200121152844 41 185 0.0 1.0 0.00 0.00 0.00 75 861.1
20200121151840 40 185 0.0 2.0 0.00 0.00 0.00 76 861.1
20200121143813 37 265 0.0 0.0 0.00 0.00 0.00 81 861.1
20200121141806 35 265 0.0 0.0 0.00 0.00 0.00 82 861.1
20200121135837 34 265 0.0 2.0 0.00 0.00 0.00 82 966.4
20200121134822 34 265 0.0 0.0 0.00 0.00 0.00 81 966.4
20200121133835 34 265 0.0 0.0 0.00 0.00 0.00 81 966.4
20200121132804 34 265 0.0 1.0 0.00 0.00 0.00 82 966.4
20200121131828 34 265 0.0 0.0 0.00 0.00 0.00 81 966.4
20200121125831 33 265 0.0 0.0 0.00 0.00 0.00 81 966.4
20200121124819 33 265 0.0 0.0 0.00 0.00 0.00 81 966.4
20200121123820 33 265 0.0 0.0 0.00 0.00 0.00 81 966.4
20200121121814 33 265 0.0 0.0 0.00 0.00 0.00 80 735.1
20200121120843 33 265 0.0 0.0 0.00 0.00 0.00 80 735.1
20200121115847 33 265 0.0 0.0 0.00 0.00 0.00 80 735.1
20200121113805 33 265 0.0 0.0 0.00 0.00 0.00 80 735.1
20200121112808 33 265 0.0 1.0 0.00 0.00 0.00 80 735.1
20200121111814 33 265 0.0 0.0 0.00 0.00 0.00 80 735.1
20200121110845 33 265 0.0 0.0 0.00 0.00 0.00 80 735.1
20200121104838 33 265 0.0 0.0 0.00 0.00 0.00 80 735.1
20200121103829 33 265 0.0 0.0 0.00 0.00 0.00 80 735.1
20200121102841 33 265 0.0 0.0 0.00 0.00 0.00 80 735.1
20200121100834 33 265 0.0 0.0 0.00 0.00 0.00 80 735.1
20200121094836 33 265 0.0 2.0 0.00 0.00 0.00 80 735.1
20200121093815 33 265 1.0 2.0 0.00 0.00 0.00 80 735.1
20200121092830 33 265 0.0 0.0 0.00 0.00 0.00 80 735.1
20200121091839 33 264 0.0 2.0 0.00 0.00 0.00 79 735.1
20200121085840 34 187 0.0 0.0 0.00 0.00 0.00 79 735.1
20200121083826 34 187 0.0 0.0 0.00 0.00 0.00 77 736.5
20200121081814 35 187 0.0 2.0 0.00 0.00 0.00 77 736.5
20200121075808 35 185 0.0 0.0 0.00 0.00 0.00 77 736.5
20200121074840 35 185 0.0 0.0 0.00 0.00 0.00 77 736.5
20200121073828 35 185 0.0 0.0 0.00 0.00 0.00 76 736.5
20200121070820 36 185 0.0 0.0 0.00 0.00 0.00 75 736.5
20200121065831 36 186 0.0 0.0 0.00 0.00 0.00 75 734.5
20200121062833 36 186 0.0 0.0 0.00 0.00 0.00 74 734.5
20200121060826 36 185 0.0 0.0 0.00 0.00 0.00 73 734.5
20200121055845 36 185 0.0 0.0 0.00 0.00 0.00 74 734.5
20200121054816 36 185 0.0 0.0 0.00 0.00 0.00 74 734.5
20200121053825 37 185 0.0 0.0 0.00 0.00 0.00 73 734.5
20200121052835 37 185 0.0 0.0 0.00 0.00 0.00 71 734.5
20200121045838 38 185 0.0 0.0 0.00 0.00 0.00 71 734.5
20200121043829 39 186 0.0 0.0 0.00 0.00 0.00 68 734.5
20200121042825 39 186 0.0 0.0 0.00 0.00 0.00 68 734.5
20200121041817 39 186 0.0 0.0 0.00 0.00 0.00 68 738.2
20200121040840 40 185 0.0 0.0 0.00 0.00 0.00 66 738.2
20200121035844 41 186 0.0 0.0 0.00 0.00 0.00 65 738.2
20200121032817 42 185 0.0 0.0 0.00 0.00 0.00 62 738.2
20200121031820 43 185 0.0 0.0 0.00 0.00 0.00 62 738.2
20200121023843 44 186 0.0 2.0 0.00 0.00 0.00 57 1027.4
20200121021813 45 186 0.0 0.0 0.00 0.00 0.00 54 1027.4
20200121020844 46 186 0.0 0.0 0.00 0.00 0.00 54 1027.4
20200121010843 49 186 0.0 0.0 0.00 0.00 0.00 44 734.8
20200121002834 52 186 0.0 0.0 0.00 0.00 0.00 40 912.6
20200120233825 55 185 0.0 1.0 0.00 0.00 0.00 36 912.6
20200120232815 55 185 0.0 0.0 0.00 0.00 0.00 35 912.6